Regional Weather Roundup
Issued by NWS

Current Version | Previous Version | Text Only | Print | Product List | Glossary Off
Versions: 1 2 3 4 5 6 7 8 9 10 11 12 13 14 15 16 17 18 19 20 21 22 23 24 25 26 27 28 29 30 31 32 33 34 35 36 37 38 39 40 41 42 43 44 45 46 47 48 49 50
000 ASUS46 KSEW 222320 RWRWA WASHINGTON REGIONAL WEATHER ROUNDUP NATIONAL WEATHER SERVICE SEATTLE WA 400 PM PDT SUN MAY 22 2022 NOTE:"FAIR" INDICATES FEW OR NO CLOUDS BELOW 12,000 FEET WITH NO SIGNIFICANT WEATHER AND/OR OBSTRUCTIONS TO VISIBILITY. WAZ507-509-555>559-230000- SEATTLE, TACOMA, EVERETT, AND VICINITY CITY SKY/WX TMP DP RH WIND PRES REMARKS EVERETT MOSUNNY 68 38 33 CALM 30.20F BOEING FIELD MOSUNNY 70 41 34 W5 30.18F RENTON MOSUNNY 71 38 29 N6 30.17F SEATAC AIRPORT PTSUNNY 70 38 31 NW3 30.19F JBLM-MCCHORD PTSUNNY 69 37 30 W7G21 30.18F PUYALLUP FAIR 72 39 30 CALM 30.19F BREMERTON PTSUNNY 70 42 36 SW7 30.18F JBLM-FT LEWIS PTSUNNY 70 39 32 NW7 30.17F TACOMA NARROWS PTSUNNY 68 40 35 S5 30.19F $$ WAZ001-503-506-510-514-515-230000- NORTH INTERIOR CITY SKY/WX TMP DP RH WIND PRES REMARKS BELLINGHAM PTSUNNY 69 43 38 VRB3 30.19F FRIDAY HARBOR PTSUNNY 65 43 44 SW7 30.21F EASTSOUND MOSUNNY 61 48 63 N5 30.18F PORT ANGELES PTSUNNY 58 48 69 NW7 30.23F EDIZ HOOK FAIR 54 50 85 W13 30.23F PORT TOWNSEND FAIR 64 46 52 NW9 30.19S NAS WHIDBEY PTSUNNY 55 48 77 W5 30.24F ARLINGTON MOSUNNY 68 47 46 NW9 30.19F BURLINGTON SUNNY 66 45 45 CALM 30.19F $$ WAZ020-022-039-040-504-511-512-230000- SOUTHWEST INTERIOR CITY SKY/WX TMP DP RH WIND PRES REMARKS SHELTON PTSUNNY 70 40 33 VRB5 30.16F OLYMPIA PTSUNNY 71 39 31 CALM 30.18F CHEHALIS FAIR 72 45 37 VRB3 30.18F KELSO MOSUNNY 73 43 33 SW5 30.18F VANCOUVER MOSUNNY 74 40 29 CALM 30.17F SCAPPOOSE, OR MOSUNNY 75 41 29 E3 30.16F PORTLAND, OR PTSUNNY 74 38 27 NW6 30.17F $$ WAZ021-516-517-230000- WASHINGTON COAST CITY SKY/WX TMP DP RH WIND PRES REMARKS FORKS CLOUDY 59 50 72 SW7 30.24F HOQUIAM PTSUNNY 58 50 75 W12 30.23F ASTORIA, OR PTSUNNY 59 50 72 W10 30.24F $$ WAZ019-023-024-040-567>569-230000- CASCADE MOUNTAINS AND COLUMBIA GORGE CITY SKY/WX TMP DP RH WIND PRES REMARKS STAMPEDE PASS CLOUDY 55 36 48 NW3 30.22S TROUTDALE, OR MOSUNNY 74 40 29 W6 30.16F HOOD RIVER, OR PTCLDY 72 36 26 CALM 30.16F THE DALLES, OR MOSUNNY 76 34 21 E6 30.16F $$ WAZ026-027-041>044-520-521-230000- EAST SLOPES CITY SKY/WX TMP DP RH WIND PRES REMARKS OMAK SUNNY 72 24 16 VRB7 30.14F WENATCHEE MOSUNNY 69 32 25 VRB7 30.15F ELLENSBURG PTSUNNY 69 31 24 VRB3 30.17F YAKIMA PTSUNNY 69 34 27 VRB3 30.18F SUNNYSIDE ARPT PTCLDY 70 41 34 N3 30.18F YAKIMA TC FAIR 68 31 25 S8 30.17F $$ WAZ028-034-035-230000- COLUMBIA BASIN CITY SKY/WX TMP DP RH WIND PRES REMARKS EPHRATA MOSUNNY 69 33 26 S7G17 30.17F MOSES LAKE SUNNY 69 32 25 MISG 30.18F PASCO SUNNY 74 38 27 VRB6 30.19F RICHLAND ARPT CLEAR 73 32 21 E8 30.19S HERMISTON, OR SUNNY 71 38 29 VRB5 30.19F $$ WAZ036>038-230000- NORTHEAST WASHINGTON CITY SKY/WX TMP DP RH WIND PRES REMARKS SPOKANE GEIGER PTSUNNY 65 29 25 W9G18 30.17F SPOKANE FELTS MOSUNNY 67 28 23 W5 30.16F FAIRCHILD AFB MOSUNNY 63 31 30 W5 30.16F COEURDALENE,ID MOSUNNY 65 31 28 W10 30.17F DEER PARK CLOUDY 67 31 26 SW15G22 30.16F $$ WAZ029>033-230000- SOUTHEAST WASHINGTON CITY SKY/WX TMP DP RH WIND PRES REMARKS PULLMAN MOSUNNY 61 38 42 W9 30.20F LEWISTON, ID MOSUNNY 69 35 28 W7 30.17F WALLA WALLA MOSUNNY 65 39 38 VRB6 30.19F PENDLETON, OR MOSUNNY 68 36 30 VRB7 30.20S $$

USA.gov is the U.S. government's official web portal to all federal, state and local government web resources and services.